Location: Newark
(58.8333°N, 23.5833°E)
Time: 12:37:51
(UTC+00:00)

Tiros 1 despin weight - Pass Details

Date: 19 November 2019
Orbit: 594 x 642 km, 48.2° (Epoch: 14 December)

Event Time Altitude Azimuth Distance (km) Brightness Sun altitude
Rises 12:37:58 0° 218° (SW) 2,825 ? 6.1°
Reaches altitude 10° 12:41:00 10° 196° (SSW) 1,930 ? 5.9°
Maximum altitude 12:43:38 16° 160° (SSE) 1,600 ? 5.7°
Drops below altitude 10° 12:46:16 10° 123° (ESE) 1,944 ? 5.5°
Sets 12:49:21 0° 101° (ESE) 2,858 ? 5.2°
